COSMOS 2475 (743)

Last updated on June 24, 2019, 3:41 a.m. UTC

1 37869U 11064C   19174.75686899  .00000083  00000-0  00000+0 0  9995
2 37869  64.5191 159.3775 0023311 265.9953  33.2919  2.13102037 59423
UTC
Height (km)
Latitude
Longitude
Inclination
Orbital Period
UTC large
Height (km)
Speed (km/s)
/
Latitude / Longitude
Inclination (degrees)
Orbital Period (minutes)
Azimuth
Elevation
Range (km)
Doppler Factor
iOS Compass Heading
iOS Angle

Next 30 passes for location: Hong Kong

Rise time Rise Azimuth (degrees) Set time Set Azimuth (degrees) Duration Max altitude (degrees)

No matching passes for this satellites